Tiempo cada hora Al Hillah

Hoy, 27 Julio, Martes

Tiempo Temperatura Precipitaciones Viento Presión Humedad
00:00 +45°C° 0 mm 5 mps 746 mmHg 15%
01:00 +43°C° 0 mm 5 mps 746 mmHg 15%
02:00 +43°C° 0 mm 5 mps 746 mmHg 16%
03:00 +42°C° 0 mm 5 mps 746 mmHg 16%
04:00 +42°C° 0 mm 4 mps 746 mmHg 17%
05:00 +42°C° 0 mm 4 mps 746 mmHg 17%
06:00 +42°C° 0 mm 4 mps 746 mmHg 17%
07:00 +45°C° 0 mm 5 mps 746 mmHg 15%
08:00 +48°C° 0 mm 6 mps 746 mmHg 12%
09:00 +51°C° 0 mm 7 mps 746 mmHg 10%
10:00 +52°C° 0 mm 7 mps 746 mmHg 9%
11:00 +55°C° 0 mm 7 mps 746 mmHg 9%
12:00 +56°C° 0 mm 7 mps 746 mmHg 8%
13:00 +56°C° 0 mm 8 mps 745 mmHg 8%
14:00 +57°C° 0 mm 8 mps 744 mmHg 7%
15:00 +57°C° 0 mm 8 mps 744 mmHg 7%
16:00 +56°C° 0 mm 8 mps 744 mmHg 7%
17:00 +55°C° 0 mm 8 mps 744 mmHg 8%
18:00 +54°C° 0 mm 8 mps 743 mmHg 8%
19:00 +52°C° 0 mm 7 mps 744 mmHg 10%
20:00 +50°C° 0 mm 7 mps 744 mmHg 12%
21:00 +47°C° 0 mm 7 mps 744 mmHg 13%
22:00 +46°C° 0 mm 8 mps 744 mmHg 14%
23:00 +47°C° 0 mm 9 mps 744 mmHg 15%

Mañana, 28 Julio, Miércoles

Tiempo Temperatura Precipitaciones Viento Presión Humedad
00:00 +45°C° 0 mm 10 mps 745 mmHg 16%
01:00 +44°C° 0 mm 9 mps 744 mmHg 17%
02:00 +43°C° 0 mm 9 mps 744 mmHg 18%
03:00 +41°C° 0 mm 8 mps 744 mmHg 19%
04:00 +41°C° 0 mm 8 mps 744 mmHg 19%
05:00 +40°C° 0 mm 7 mps 745 mmHg 19%
06:00 +40°C° 0 mm 7 mps 745 mmHg 19%
07:00 +41°C° 0 mm 7 mps 745 mmHg 16%
08:00 +44°C° 0 mm 7 mps 745 mmHg 14%
09:00 +46°C° 0 mm 8 mps 745 mmHg 11%
10:00 +48°C° 0 mm 8 mps 745 mmHg 10%
11:00 +49°C° 0 mm 8 mps 745 mmHg 8%
12:00 +50°C° 0 mm 9 mps 745 mmHg 7%
13:00 +51°C° 0 mm 9 mps 744 mmHg 7%
14:00 +51°C° 0 mm 9 mps 744 mmHg 6%
15:00 +52°C° 0 mm 10 mps 744 mmHg 6%
16:00 +50°C° 0 mm 9 mps 744 mmHg 7%
17:00 +49°C° 0 mm 9 mps 744 mmHg 7%
18:00 +49°C° 0 mm 8 mps 744 mmHg 8%
19:00 +46°C° 0 mm 7 mps 744 mmHg 9%
20:00 +43°C° 0 mm 5 mps 744 mmHg 11%
21:00 +42°C° 0 mm 4 mps 744 mmHg 12%
22:00 +41°C° 0 mm 4 mps 744 mmHg 14%
23:00 +40°C° 0 mm 4 mps 744 mmHg 15%

Pasado mañana, 29 Julio, Jueves

Tiempo Temperatura Precipitaciones Viento Presión Humedad
00:00 +38°C° 0 mm 4 mps 744 mmHg 16%
01:00 +38°C° 0 mm 4 mps 744 mmHg 18%
02:00 +37°C° 0 mm 5 mps 744 mmHg 19%
03:00 +36°C° 0 mm 5 mps 743 mmHg 21%
04:00 +36°C° 0 mm 5 mps 743 mmHg 21%
05:00 +36°C° 0 mm 5 mps 744 mmHg 22%
06:00 +36°C° 0 mm 5 mps 744 mmHg 23%
07:00 +39°C° 0 mm 5 mps 744 mmHg 20%
08:00 +41°C° 0 mm 6 mps 744 mmHg 17%
09:00 +44°C° 0 mm 6 mps 744 mmHg 14%
10:00 +45°C° 0 mm 6 mps 744 mmHg 13%
11:00 +47°C° 0 mm 7 mps 744 mmHg 12%
12:00 +49°C° 0 mm 7 mps 744 mmHg 11%
13:00 +50°C° 0 mm 7 mps 743 mmHg 11%
14:00 +50°C° 0 mm 8 mps 743 mmHg 10%
15:00 +51°C° 0 mm 8 mps 743 mmHg 10%
16:00 +50°C° 0 mm 8 mps 742 mmHg 10%
17:00 +50°C° 0 mm 7 mps 742 mmHg 10%
18:00 +49°C° 0 mm 7 mps 742 mmHg 10%
19:00 +47°C° 0 mm 6 mps 743 mmHg 11%
20:00 +45°C° 0 mm 6 mps 743 mmHg 13%
21:00 +43°C° 0 mm 5 mps 743 mmHg 15%
22:00 +42°C° 0 mm 5 mps 743 mmHg 15%
23:00 +41°C° 0 mm 5 mps 743 mmHg 16%

30 Julio, Viernes

Tiempo Temperatura Precipitaciones Viento Presión Humedad
00:00 +40°C° 0 mm 5 mps 743 mmHg 17%
01:00 +40°C° 0 mm 5 mps 743 mmHg 17%
02:00 +39°C° 0 mm 5 mps 743 mmHg 17%
03:00 +37°C° 0 mm 4 mps 743 mmHg 17%
04:00 +37°C° 0 mm 4 mps 743 mmHg 17%
05:00 +37°C° 0 mm 4 mps 744 mmHg 17%
06:00 +36°C° 0 mm 4 mps 744 mmHg 17%
07:00 +40°C° 0 mm 4 mps 744 mmHg 16%
08:00 +42°C° 0 mm 5 mps 745 mmHg 15%
09:00 +45°C° 0 mm 5 mps 745 mmHg 13%
10:00 +47°C° 0 mm 6 mps 745 mmHg 11%
11:00 +48°C° 0 mm 6 mps 745 mmHg 9%
12:00 +51°C° 0 mm 6 mps 744 mmHg 7%
13:00 +51°C° 0 mm 6 mps 744 mmHg 7%
14:00 +51°C° 0 mm 6 mps 744 mmHg 6%
15:00 +51°C° 0 mm 7 mps 743 mmHg 6%
16:00 +51°C° 0 mm 6 mps 743 mmHg 6%
17:00 +49°C° 0 mm 5 mps 743 mmHg 6%
18:00 +49°C° 0 mm 4 mps 743 mmHg 6%
19:00 +47°C° 0 mm 4 mps 743 mmHg 7%
20:00 +44°C° 0 mm 3 mps 743 mmHg 8%
21:00 +43°C° 0 mm 3 mps 744 mmHg 10%
22:00 +43°C° 0 mm 3 mps 744 mmHg 10%
23:00 +42°C° 0 mm 4 mps 744 mmHg 10%

31 Julio, Sábado

Tiempo Temperatura Precipitaciones Viento Presión Humedad
00:00 +42°C° 0 mm 4 mps 744 mmHg 10%
01:00 +41°C° 0 mm 4 mps 744 mmHg 12%
02:00 +40°C° 0 mm 4 mps 744 mmHg 13%
03:00 +40°C° 0 mm 4 mps 744 mmHg 14%
04:00 +40°C° 0 mm 4 mps 744 mmHg 15%
05:00 +38°C° 0 mm 3 mps 744 mmHg 16%
06:00 +38°C° 0 mm 3 mps 745 mmHg 17%
07:00 +40°C° 0 mm 3 mps 745 mmHg 15%
08:00 +44°C° 0 mm 3 mps 745 mmHg 13%
09:00 +46°C° 0 mm 3 mps 745 mmHg 10%
10:00 +48°C° 0 mm 4 mps 745 mmHg 9%
11:00 +50°C° 0 mm 5 mps 745 mmHg 8%
12:00 +52°C° 0 mm 6 mps 745 mmHg 7%
13:00 +52°C° 0 mm 6 mps 744 mmHg 7%
14:00 +52°C° 0 mm 7 mps 744 mmHg 7%
15:00 +52°C° 0 mm 8 mps 744 mmHg 7%
16:00 +52°C° 0 mm 7 mps 743 mmHg 7%
17:00 +51°C° 0 mm 6 mps 743 mmHg 8%
18:00 +50°C° 0 mm 5 mps 743 mmHg 8%
19:00 +48°C° 0 mm 4 mps 744 mmHg 9%
20:00 +46°C° 0 mm 3 mps 744 mmHg 10%
21:00 +43°C° 0 mm 2 mps 744 mmHg 12%
22:00 +43°C° 0 mm 2 mps 744 mmHg 12%
23:00 +42°C° 0 mm 2 mps 744 mmHg 13%

1 Agosto, Domingo

Tiempo Temperatura Precipitaciones Viento Presión Humedad
00:00 +42°C° 0 mm 3 mps 744 mmHg 14%
01:00 +42°C° 0 mm 3 mps 744 mmHg 14%
02:00 +40°C° 0 mm 3 mps 744 mmHg 15%
03:00 +39°C° 0 mm 3 mps 744 mmHg 15%
04:00 +39°C° 0 mm 3 mps 744 mmHg 16%
05:00 +38°C° 0 mm 3 mps 745 mmHg 17%
06:00 +38°C° 0 mm 3 mps 745 mmHg 17%
07:00 +40°C° 0 mm 2 mps 745 mmHg 15%
08:00 +43°C° 0 mm 2 mps 745 mmHg 13%
09:00 +46°C° 0 mm 2 mps 745 mmHg 10%
10:00 +46°C° 0 mm 1 mps 745 mmHg 9%
11:00 +47°C° 0 mm 1 mps 745 mmHg 9%
12:00 +49°C° 0 mm 1 mps 745 mmHg 8%
13:00 +51°C° 0 mm 3 mps 744 mmHg 7%
14:00 +52°C° 0 mm 4 mps 744 mmHg 6%
15:00 +53°C° 0 mm 5 mps 743 mmHg 6%
16:00 +53°C° 0 mm 5 mps 743 mmHg 6%
17:00 +52°C° 0 mm 6 mps 744 mmHg 6%
18:00 +51°C° 0 mm 6 mps 744 mmHg 7%
19:00 +48°C° 0 mm 5 mps 744 mmHg 7%
20:00 +47°C° 0 mm 4 mps 744 mmHg 8%
21:00 +44°C° 0 mm 4 mps 744 mmHg 9%
22:00 +43°C° 0 mm 4 mps 744 mmHg 10%
23:00 +42°C° 0 mm 4 mps 744 mmHg 10%
Mostrar más

Necesitamos Su Consentimiento

Meteoprog y nuestros Proveedores de Servicios pueden almacenar y acceder a sus datos personales como cookies, identificadores de dispositivo u otras tecnologías similares de su dispositivo y procesar dichos datos para personalizar contenido y anuncios, además de ofrecer funciones de redes sociales y analizar el tráfico.

  • Almacenar y/o acceder a información en su dispositivo

    Se puede almacenar o acceder a cookies, identificadores de dispositivo u otra información de su dispositivo para los fines anteriormente indicados.

  • Anuncios y contenido personalizados, medición de anuncios y contenido, percepciones del público, y desarrollo de productos

    Los anuncios y el contenido pueden personalizarse en base a su perfil. Se pueden añadir más datos para personalizar mejor los anuncios y contenidos. Se puede medir el rendimiento de los anuncios y contenidos. Se puede obtener la percepción sobre el público que ha visto los anuncios y contenidos. Dichos datos pueden usarse para desarrollar o mejorar la experiencia del usuario, sistemas y software.

Al hacer clic en ‘Estoy De Acuerdo’ usted permitirá el uso de las cookies, identificadores de dispositivo, balizas web u otras tecnologías similares indicadas. Su configuración puede cambiarse desde el navegador de su dispositivo.

Para ciertos fines, los intereses legítimos pueden ser considerados por encima del consentimiento. Puede leer más sobre ello en nuestra Política de Privacidad y Cookies.